{"data":{"norad_id":52301,"intl_designator":"2022-041AS","name":"STARLINK-3768","alt_names":[],"object_type":"PAYLOAD","status":"ACTIVE","operator":null,"country":"US","launch_date":"2022-04-21","launch_site_code":"AFETR","launch_vehicle":null,"mission":null,"orbit_class":"UNKNOWN","rcs_meters":null,"size_class":null,"mass_kg":null,"dimensions":null,"purposes":["comms"],"wikipedia_slug":null,"has_3d_model":false,"image_url":null,"decayed_at":null,"tle_current":{"epoch":"2026-09-19T16:58:17.571648Z","epoch_age_seconds":128154,"freshness":"FRESH","line1":"1 52301U 22041AS  26262.70714782 -.00000312  00000+0  18522-5 0  9993","line2":"2 52301  53.1601 295.7170 0001234  73.2215 286.8923 15.33548570243963","mean_motion":15.3354857,"eccentricity":0.0001234,"inclination_deg":53.1601,"raan_deg":295.717,"arg_perigee_deg":73.2215,"mean_anomaly_deg":286.8923,"bstar":1.8522e-6,"rev_number":24396,"period_min":93.899862591245,"perigee_km":464.39056825898,"apogee_km":466.07951247855,"semimajor_km":6843.3720403688,"source":"CELESTRAK","updated_at":"2026-09-20T09:00:40.018309Z"}}}